Weather History for Frankfort, MI

Change the Weather History Date:

Sunday, December 30, 2012

  Actual Average (KTVC) Record (KTVC)
Temperature  
Mean Temperature 27 °F 23 °F  
Max Temperature 30 °F 29 °F 56 °F (1936)
Min Temperature 24 °F 17 °F -13 °F (1976)
Degree Days  
Heating Degree Days 38 42  
Month to date heating degree days 1146  
Since 1 July heating degree days 2765  
Moisture  
Dew Point 21 °F    
Average Humidity 78    
Maximum Humidity 85    
Minimum Humidity 70    
Precipitation  
Precipitation 0.00 in 0.08 in 0.85 in (1971)
Month to date precipitation 2.40  
Year to date precipitation 32.96  
Sea Level Pressure  
Sea Level Pressure 30.12 in    
Wind  
Wind Speed 9 mph (WSW)    
Max Wind Speed 13 mph    
Max Gust Speed 21 mph    
Visibility 10 miles    
Events Snow    
T = Trace of Precipitation, MM = Missing Value Source: NWS Daily Summary

Daily Weather History Graph

Daily Weather History Graph

Search for Another Location

Airport:

Trip Planner

Search our weather history database for the weather conditions in past years. The results will help you decide how hot, cold, wet, or windy it might be!

Date:

Astronomy

Dec. 30, 2012 Rise Set
Actual Time 8:21 AM EST 5:13 PM EST
Civil Twilight 7:48 AM EST 5:47 PM EST
Nautical Twilight 7:11 AM EST 6:24 PM EST
Astronomical Twilight 6:35 AM EST 6:59 PM EST
Moon 7:51 PM EST (12/30) 9:24 AM EST (12/30)
Length of Visible Light 9h 59m
Length of Day
8h 52m
Waning Gibbous, 95% of the Moon is Illuminated
Dec 30
Waning Gibbous
Jan 4
Last Quarter
Jan 11
New
Jan 18
First Quarter
Jan 26
Full

Hourly Weather History & Observations

Time (EST) Temp. Windchill Dew Point Humidity Pressure Visibility Wind Dir Wind Speed Gust Speed Precip Events Conditions
12:13 AM 30.0 °F 22.4 °F 21.2 °F 70% 30.05 in 10.0 mi WNW 8.1 mph 16.1 mph N/A   Overcast
12:33 AM 30.0 °F 21.7 °F 21.2 °F 70% 30.05 in 10.0 mi NW 9.2 mph - N/A   Overcast
12:53 AM 29.8 °F 23.0 °F 21.2 °F 70% 30.05 in 10.0 mi WNW 6.9 mph - N/A   Overcast
1:13 AM 30.0 °F 22.4 °F 22.6 °F 74% 30.05 in 10.0 mi WNW 8.1 mph - N/A   Overcast
1:34 AM 30.0 °F 20.5 °F 22.6 °F 74% 30.05 in 10.0 mi WNW 11.5 mph - N/A   Overcast
1:54 AM 30.0 °F 20.0 °F 21.9 °F 72% 30.06 in 10.0 mi WNW 12.7 mph - N/A   Overcast
2:14 AM 29.3 °F 20.8 °F 21.9 °F 74% 30.07 in 10.0 mi West 9.2 mph 20.7 mph N/A   Overcast
2:34 AM 29.1 °F 19.4 °F 21.2 °F 72% 30.07 in 10.0 mi WNW 11.5 mph 20.7 mph N/A   Overcast
2:54 AM 28.9 °F 19.2 °F 20.3 °F 70% 30.08 in 10.0 mi WNW 11.5 mph - N/A   Overcast
3:14 AM 28.9 °F 19.8 °F 20.1 °F 70% 30.09 in 10.0 mi WNW 10.4 mph - N/A   Overcast
3:34 AM 28.4 °F 19.7 °F 20.5 °F 72% 30.10 in 10.0 mi West 9.2 mph - N/A   Overcast
3:54 AM 28.2 °F 20.2 °F 20.3 °F 72% 30.10 in 10.0 mi West 8.1 mph - N/A   Overcast
4:15 AM 27.9 °F 19.8 °F 20.3 °F 73% 30.10 in 10.0 mi West 8.1 mph 16.1 mph N/A   Overcast
4:35 AM 27.5 °F 18.0 °F 20.5 °F 75% 30.10 in 10.0 mi West 10.4 mph - N/A Snow Light Snow
4:55 AM 27.5 °F 18.6 °F 20.8 °F 76% 30.10 in 10.0 mi West 9.2 mph - N/A   Overcast
5:15 AM 27.5 °F 21.1 °F 20.3 °F 74% 30.11 in 10.0 mi West 5.8 mph - N/A   Overcast
5:35 AM 27.3 °F 19.1 °F 20.3 °F 75% 30.11 in 10.0 mi West 8.1 mph - N/A   Overcast
5:55 AM 27.0 °F 17.3 °F 20.3 °F 76% 30.13 in 10.0 mi WSW 10.4 mph - N/A   Overcast
6:15 AM 26.4 °F 18.0 °F 20.1 °F 77% 30.14 in 10.0 mi West 8.1 mph - N/A   Overcast
6:35 AM 26.2 °F 17.8 °F 19.9 °F 77% 30.14 in 10.0 mi West 8.1 mph - N/A   Overcast
6:56 AM 25.7 °F 15.7 °F 19.4 °F 77% 30.15 in 10.0 mi West 10.4 mph - N/A   Overcast
7:36 AM 25.7 °F 19.0 °F 20.1 °F 79% 30.16 in 10.0 mi West 5.8 mph 9.2 mph N/A   Overcast
7:56 AM 25.7 °F 18.0 °F 20.3 °F 80% 30.16 in 10.0 mi West 6.9 mph - N/A   Overcast
8:16 AM 25.7 °F 19.0 °F 20.3 °F 80% 30.16 in 10.0 mi WSW 5.8 mph - N/A   Overcast
8:36 AM 25.7 °F 17.1 °F 20.3 °F 80% 30.16 in 10.0 mi WNW 8.1 mph - N/A   Overcast
8:51 AM 25.5 °F 16.9 °F 19.9 °F 79% 30.17 in 10.0 mi West 8.1 mph - N/A   Overcast
9:11 AM 25.2 °F 15.1 °F 19.4 °F 79% 30.18 in 10.0 mi West 10.4 mph - N/A   Overcast
9:32 AM 24.8 °F 17.9 °F 18.9 °F 78% 30.17 in 10.0 mi West 5.8 mph - N/A   Overcast
9:52 AM 24.8 °F 20.5 °F 19.2 °F 79% 30.18 in 10.0 mi West 3.5 mph - N/A   Overcast
10:12 AM 24.8 °F 17.9 °F 19.4 °F 80% 30.18 in 10.0 mi WSW 5.8 mph - N/A   Overcast
10:32 AM 25.2 °F 17.3 °F 19.4 °F 79% 30.19 in 10.0 mi West 6.9 mph - N/A   Overcast
10:52 AM 25.2 °F 19.5 °F 19.0 °F 78% 30.20 in 10.0 mi WSW 4.6 mph - N/A   Overcast
11:12 AM 25.2 °F 17.3 °F 19.2 °F 78% 30.20 in 10.0 mi WSW 6.9 mph - N/A   Overcast
11:32 AM 25.5 °F 17.8 °F 19.4 °F 78% 30.19 in 10.0 mi West 6.9 mph - N/A   Overcast
11:52 AM 25.5 °F 18.7 °F 19.4 °F 78% 30.19 in 10.0 mi WSW 5.8 mph - N/A   Overcast
12:13 PM 25.7 °F 18.0 °F 19.2 °F 76% 30.19 in 10.0 mi WSW 6.9 mph 17.3 mph N/A   Overcast
12:33 PM 25.3 °F 17.6 °F 19.6 °F 79% 30.18 in 10.0 mi WSW 6.9 mph 16.1 mph N/A   Overcast
12:53 PM 25.2 °F 15.7 °F 18.7 °F 76% 30.17 in 10.0 mi SW 9.2 mph - N/A   Overcast
1:13 PM 25.2 °F 16.5 °F 19.0 °F 78% 30.17 in 10.0 mi WSW 8.1 mph - N/A   Overcast
1:33 PM 25.3 °F 16.0 °F 19.0 °F 77% 30.17 in 10.0 mi WSW 9.2 mph 16.1 mph N/A   Overcast
1:53 PM 25.5 °F 16.9 °F 19.4 °F 78% 30.17 in 10.0 mi SW 8.1 mph - N/A   Overcast
2:14 PM 24.8 °F 16.1 °F 19.8 °F 81% 30.16 in 10.0 mi SW 8.1 mph 18.4 mph N/A   Overcast
2:34 PM 24.8 °F 15.3 °F 19.6 °F 81% 30.15 in 10.0 mi SW 9.2 mph - N/A   Overcast
2:54 PM 24.6 °F 15.1 °F 19.2 °F 80% 30.15 in 10.0 mi SW 9.2 mph - N/A   Overcast
3:14 PM 24.8 °F 15.3 °F 19.4 °F 80% 30.15 in 10.0 mi SW 9.2 mph - N/A   Overcast
3:34 PM 25.2 °F 17.3 °F 19.9 °F 81% 30.15 in 10.0 mi SSW 6.9 mph - N/A   Overcast
3:54 PM 25.2 °F 15.1 °F 19.4 °F 79% 30.15 in 10.0 mi SSW 10.4 mph 18.4 mph N/A   Overcast
4:14 PM 25.5 °F 15.5 °F 20.3 °F 81% 30.14 in 10.0 mi SSW 10.4 mph - N/A   Overcast
4:34 PM 25.7 °F 16.4 °F 19.9 °F 79% 30.12 in 10.0 mi SSW 9.2 mph 16.1 mph N/A   Mostly Cloudy
4:54 PM 25.5 °F 16.2 °F 19.8 °F 79% 30.12 in 10.0 mi SSW 9.2 mph - N/A   Mostly Cloudy
5:14 PM 26.2 °F 15.8 °F 21.0 °F 81% 30.12 in 10.0 mi SSW 11.5 mph 16.1 mph N/A   Overcast
5:40 PM 26.6 °F 18.2 °F 21.7 °F 82% 30.12 in 10.0 mi SW 8.1 mph 17.3 mph N/A   Overcast
6:00 PM 27.1 °F 16.9 °F 21.9 °F 81% 30.12 in 10.0 mi SW 11.5 mph 18.4 mph N/A   Overcast
6:20 PM 27.5 °F 17.4 °F 22.1 °F 80% 30.12 in 10.0 mi SSW 11.5 mph 16.1 mph N/A   Overcast
6:35 PM 28.0 °F 18.6 °F 21.9 °F 78% 30.11 in 10.0 mi SSW 10.4 mph 16.1 mph N/A   Overcast
6:55 PM 28.0 °F 18.6 °F 22.1 °F 78% 30.11 in 10.0 mi SSW 10.4 mph 16.1 mph N/A   Mostly Cloudy
7:15 PM 28.4 °F 18.0 °F 22.6 °F 79% 30.11 in 10.0 mi SSW 12.7 mph 17.3 mph N/A   Overcast
7:35 PM 28.8 °F 20.9 °F 23.0 °F 79% 30.10 in 10.0 mi SSW 8.1 mph - N/A   Overcast
7:55 PM 29.3 °F 20.2 °F 23.9 °F 80% 30.10 in 10.0 mi SW 10.4 mph 17.3 mph N/A   Overcast
8:16 PM 30.0 °F 20.5 °F 23.9 °F 78% 30.09 in 10.0 mi SSW 11.5 mph 19.6 mph N/A   Overcast
8:36 PM 30.2 °F 23.4 °F 23.7 °F 77% 30.08 in 10.0 mi SSW 6.9 mph 17.3 mph N/A   Mostly Cloudy
8:56 PM 27.1 °F 18.9 °F 22.1 °F 81% 30.08 in 10.0 mi SE 8.1 mph - N/A   Mostly Cloudy
9:16 PM 26.8 °F 19.3 °F 22.3 °F 83% 30.06 in 10.0 mi South 6.9 mph - N/A   Mostly Cloudy
9:36 PM 27.5 °F 20.2 °F 22.8 °F 83% 30.05 in 10.0 mi South 6.9 mph - N/A   Overcast
9:56 PM 27.5 °F 19.3 °F 23.0 °F 83% 30.04 in 10.0 mi SSE 8.1 mph - N/A   Overcast
10:11 PM 27.3 °F 18.4 °F 23.0 °F 84% 30.03 in 10.0 mi SSE 9.2 mph - N/A   Overcast
10:31 PM 27.1 °F 20.7 °F 23.0 °F 84% 30.01 in 10.0 mi SSE 5.8 mph - N/A   Overcast
10:51 PM 27.5 °F 21.1 °F 23.5 °F 85% 30.01 in 10.0 mi SSE 5.8 mph - N/A   Overcast
11:12 PM 27.9 °F 19.8 °F 23.7 °F 84% 30.01 in 10.0 mi SSE 8.1 mph - N/A   Overcast
11:32 PM 28.4 °F 21.2 °F 24.4 °F 85% 30.00 in 10.0 mi SSE 6.9 mph - N/A   Overcast
11:52 PM 29.5 °F 22.5 °F 25.3 °F 85% 29.99 in 10.0 mi SSE 6.9 mph - N/A   Overcast